Hourly Data Report for June 09, 2021

MANIWAKI AIRPORT
QUEBEC
Current Station Operator: ECCC - MSC

46°16'29.000" N
75°59'31.000" W
199.70 m
7034482
71721
WMJ

Download Data

Hourly Data (June 2021)
Hourly Data Report for June 9, 2021
TIME
LST
Temp Definition
°C
Dew Point Definition
°C
Rel Hum Definition
%
Precip. Amount Definition
mm

Wind Dir Definition
10's deg

Wind Spd Definition
km/h
Visibility Definition
km
Stn Press Definition
kPa
Hmdx Definition


Wind Chill Definition


Weather Definition


00:00 21.4 13.1 59 0.0 1 8   99.20     LegendNANA
01:00 20.6 12.2 58 0.0 1 10   99.25     LegendNANA
02:00 20.6 10.1 51 0.0 1 15   99.31     LegendNANA
03:00 18.7 9.4 55 0.0 36 11   99.32     LegendNANA
04:00 17.0 8.8 58 0.0 36 6   99.38     LegendNANA
05:00 16.0 9.2 64 0.0 2 7   99.51     LegendNANA
06:00 17.9 9.9 59 0.0 36 6   99.56     LegendNANA
07:00 19.1 9.7 54 0.0 36 12   99.62     LegendNANA
08:00 20.2 8.6 47 0.0 1 14   99.62     LegendNANA
09:00 21.5 8.8 44 0.0 36 16   99.66     LegendNANA
10:00 22.4 8.5 41 0.0 1 18   99.68     LegendNANA
11:00 23.7 8.1 37 0.0 36 18   99.68     LegendNANA
12:00 24.9 8.0 34 0.0 34 11   99.67 25   LegendNANA
13:00 25.0 6.7 31 0.0 34 21   99.66 25   LegendNANA
14:00 24.9 5.5 29 0.0 30 16   99.65     LegendNANA
15:00 25.3 6.0 29 0.0 1 17   99.63 25   LegendNANA
16:00 24.7 5.2 28 0.0 32 17   99.59     LegendNANA
17:00 24.0 5.4 30 0.0 35 15   99.55     LegendNANA
18:00 23.1 5.1 31 0.0 33 15   99.57     LegendNANA
19:00 21.7 5.8 35 0.0 35 10   99.58     LegendNANA
20:00 19.2 5.8 41 0.0 34 9   99.61     LegendNANA
21:00 18.0 6.3 46 0.0 34 9   99.68     LegendNANA
22:00 15.5 6.7 56 0.0 36 8   99.72     LegendNANA
23:00 14.0 6.8 62 0.0 36 6   99.74     LegendNANA

Notes on Data Quality.

Legend

  • E = Estimated
  • M = Missing
  • NA = Not Available*
  • [empty] = Indicates an unobserved value
Date modified: